TimeEDT,TemperatureF,Dew PointF,Humidity,Sea Level PressureIn,VisibilityMPH,Wind Direction,Wind SpeedMPH,Gust SpeedMPH,PrecipitationIn,Events,Conditions,WindDirDegrees,DateUTC
12:53 AM,71.1,57.0,61,30.06,10.0,ESE,16.1,-,N/A,,Partly Cloudy,110,2013-03-11 04:53:00
1:53 AM,71.1,57.0,61,30.06,10.0,ESE,16.1,-,N/A,,Partly Cloudy,110,2013-03-11 05:53:00
2:53 AM,71.1,55.0,57,30.04,10.0,ESE,11.5,-,N/A,,Partly Cloudy,110,2013-03-11 06:53:00
3:53 AM,71.1,59.0,66,30.01,10.0,ESE,10.4,-,N/A,,Clear,120,2013-03-11 07:53:00
4:53 AM,71.1,55.9,59,29.99,10.0,SE,13.8,-,N/A,,Clear,130,2013-03-11 08:53:00
5:53 AM,71.1,60.1,68,29.98,9.0,SE,11.5,-,N/A,,Scattered Clouds,130,2013-03-11 09:53:00
6:53 AM,71.1,61.0,70,29.98,10.0,ESE,13.8,-,N/A,,Scattered Clouds,120,2013-03-11 10:53:00
7:53 AM,72.0,61.0,68,30.00,10.0,ESE,13.8,-,N/A,,Scattered Clouds,120,2013-03-11 11:53:00
8:53 AM,73.0,60.1,64,30.01,10.0,ESE,12.7,-,N/A,,Mostly Cloudy,120,2013-03-11 12:53:00
9:53 AM,75.9,59.0,56,30.03,10.0,SE,13.8,-,N/A,,Scattered Clouds,130,2013-03-11 13:53:00
10:53 AM,78.1,60.1,54,30.03,10.0,ESE,16.1,-,N/A,,Scattered Clouds,120,2013-03-11 14:53:00
11:53 AM,78.1,60.1,54,30.02,10.0,ESE,17.3,-,N/A,,Scattered Clouds,120,2013-03-11 15:53:00
12:53 PM,79.0,62.1,56,30.02,10.0,ESE,16.1,-,N/A,,Mostly Cloudy,110,2013-03-11 16:53:00
1:53 PM,79.0,63.0,58,30.01,10.0,SE,15.0,-,N/A,,Mostly Cloudy,130,2013-03-11 17:53:00
2:53 PM,80.1,62.1,54,30.00,10.0,SE,12.7,-,N/A,,Mostly Cloudy,130,2013-03-11 18:53:00
3:53 PM,79.0,61.0,54,29.98,10.0,SE,13.8,19.6,N/A,,Mostly Cloudy,130,2013-03-11 19:53:00
4:53 PM,78.1,62.1,58,29.96,10.0,ESE,12.7,-,N/A,,Mostly Cloudy,110,2013-03-11 20:53:00
5:53 PM,75.9,62.1,62,29.96,10.0,ESE,11.5,-,N/A,,Scattered Clouds,120,2013-03-11 21:53:00
6:53 PM,73.9,63.0,68,29.96,10.0,ESE,9.2,-,N/A,,Scattered Clouds,120,2013-03-11 22:53:00
7:53 PM,72.0,63.0,73,29.96,10.0,ESE,9.2,-,N/A,,Partly Cloudy,110,2013-03-11 23:53:00
8:53 PM,72.0,63.0,73,29.96,10.0,ESE,12.7,-,N/A,,Partly Cloudy,120,2013-03-12 00:53:00
9:53 PM,72.0,60.1,66,29.98,10.0,SE,9.2,-,N/A,,Partly Cloudy,130,2013-03-12 01:53:00
10:53 PM,73.0,59.0,61,29.99,10.0,SE,11.5,-,N/A,,Partly Cloudy,140,2013-03-12 02:53:00
11:53 PM,73.0,64.9,76,29.99,10.0,SE,16.1,-,N/A,,Clear,140,2013-03-12 03:53:00